SL-16 DEB, 39709

Orbit data source: Space-Track

SL-16 DEB, 39709 is space debris in LEO originally from a launch on Fri, 25 Dec 1992 UTC launched from the Tyuratam Missile And Space Complex (TTMTR). Debris objects in space refer to the collection of defunct objects orbiting the Earth. Examples of debris include non-operational satellites, rocket bodies, and fragments generated from explosions, collisions, or faulty payload assembly.

Loading next visibility...
Identifier
39709, 1992-093JZ
Orbit
LEO
Country
Flag of CISCIS
Related business
Manufacturer
Unknown
Mission
Spacecraft
Bus & Motor
Unknown
Mass
Unknown
Launch date (UTC)
1992-12-25 (33 years ago)
Launch vehicle
Unknown
Launch site
Tyuratam Missile And Space Complex (TTMTR)
Object type
Payload
Rocket body
Debris
Shape & HBR
Unknown shape, 0.1 m
Radar Cross Section
Small (<0.1 m²)

Expand to show TLE details & history
Last TLE update: 22 hours ago

TLE from 22 hours ago
0 SL-16 DEB
1 39709U 92093JZ  26133.00305112  .00000380  00000-0  29105-3 0  9999
2 39709  71.1475  13.1828 0141322  97.5256 264.1937 13.94625161613308
Epoch: 2026-05-13T00:04Z
TLE epoch observation values (Epoch: 2026-05-13T00:04:23.616Z)
Latitude
-0.00002°
Longitude
141.31507°
Altitude
926.718 km
Speed
7.383 km/s
True Right ascension
00h 52m 43s
True Declination
0° 00' 00"
Sunlit
Object was in daylight at epoch
Visualization orbit readout
Latitude
Unknown
Longitude
Unknown
Altitude
Unknown
Speed
Unknown
Apparent Right ascension
Unknown
Apparent Declination
Unknown
Sunlit
N/A
Visualization observer readout
Local Sidereal Time
06:52:08
Azimuth
Unknown
Elevation
Unknown
Doppler factor
Unknown
Orbital elements
Apogee altitude
1,013.4 km
Perigee altitude
807.394 km
Semi-major axis
7,288.534 km
Eccentricity
0.01413
Inclination
71.1475°
RAAN
13.1828°
Arg. of periapsis
97.5256°
True anomaly
262.58566°
Mean anomaly
264.1937°
Eccentric anomaly
263.38937°
Mean motion
3.48805 °/min
Orbital period
103.21 mins
BSTAR
0.00029105
Loading maneuver chart data...
Computing Atmospheric mass density...
Loading historical data...
Loading historical data...
Loading historical data...
Loading historical data...
Loading historical data...
Loading historical data...
Loading historical data...

Documentation

Showing up to 5 results
|